Orbital Elements at Epoch 2459200.5 (2020-Dec-17.0) TDB
Reference: JPL 21 (heliocentric ecliptic J2000)
Element | Value | Uncertainty (1-sigma) | Units |
e | .1252279721730153 | 3.9021e-08 | |
a | 3.024244066950093 | 1.6287e-08 | au |
q | 2.64552411508966 | 1.2182e-07 | au |
i | 4.815146161712382 | 4.2057e-06 | deg |
node | 227.8891495953843 | 4.5308e-05 | deg |
peri | 200.5564521626221 | 4.8133e-05 | deg |
M | 355.8169711999583 | 1.5343e-05 | deg |
tp | 2459222.820917216401 (2021-Jan-08.32091722) | 8.1872e-05 | TDB |
period | 1920.983713481594 5.26 | 1.5518e-05 4.249e-08 | d yr |
n | .1874039834244796 | 1.5139e-09 | deg/d |
Q | 3.402964018810525 | 1.8327e-08 | au |
|
| | Orbit Determination Parameters
Additional Information
|